This demonstration page uses our WeatherBlox Daily Observations layout. Learn more.

Left ArrowRight Arrow

Hourly Observations for June 20, 2018

Temp ( °F °C ) Dew Point ( °F °C ) Humidity (%) Winds ( mph kmh ) Pressure ( in mb ) Visibility ( mi km ) Precip ( " mm )
12:08 am 00:08 Cloudy with Mist and Fog 66 19 64 18 94 94 NNE 8 13 29.94 1014 3 4 0.07 1.78
12:18 am 00:18 Cloudy with Mist and Fog 66 19 64 18 94 94 N 8 13 29.94 1014 4 6 0.10 2.54
12:27 am 00:27 Cloudy with Mist and Fog 66 19 64 18 94 94 NNW 5 7 29.94 1014 5 8 0.11 2.79
12:35 am 00:35 Cloudy with Mist and Fog 66 19 64 18 94 94 Calm 29.94 1014 6 10 0.12 3.05
12:53 am 00:53 Cloudy with Mist and Fog 66 19 64 18 94 94 SE 3 6 29.94 1014 4 6 0.15 3.81
12:57 am 00:57 Cloudy with Mist and Fog 66 18.9 65 18.3 96 96 SE 6 9 29.95 1014 4 6 0.16 4.06
1:09 am 01:09 Cloudy with Mist and Fog 66 19 64 18 94 94 SE 7 11 29.94 1014 4 6 0.02 0.51
1:23 am 01:23 Cloudy with Mist and Fog 64 18 64 18 100 100 ESE 6 9 29.94 1014 4 6 0.05 1.27
1:44 am 01:44 Cloudy with Mist and Fog 64 18 63 17 94 94 Calm 29.94 1014 2 3 0.00 0.00
1:57 am 01:57 Cloudy with Mist and Fog 64 17.8 62 16.7 93 93 SSW 3 6 29.94 1014 1 2 0.20 5.08
2:08 am 02:08 Cloudy with Mist and Fog 64 18 63 17 94 94 SSW 5 7 29.91 1013 3 5 0.00 0.00
2:57 am 02:57 Cloudy 64 17.8 63 17.2 96 96 WNW 3 6 29.86 1011 10 16 0.11 2.79
3:57 am 03:57 Cloudy 64 17.8 61 16.1 90 90 ENE 8 13 29.80 1009 10 16 0.00 0.00
4:57 am 04:57 Mostly Cloudy 64 17.8 61 16.1 90 90 W 8 13 29.88 1012 10 16 0.00 0.00
5:57 am 05:57 Cloudy 64 17.8 62 16.7 93 93 WSW 8 13 29.90 1012 10 16 0.00 0.00
6:57 am 06:57 Mostly Cloudy 66 18.9 62 16.7 87 87 WSW 7 11 29.89 1012 10 16 0.00 0.00
7:57 am 07:57 Cloudy 67 19.4 64 17.8 91 91 W 8 13 29.89 1012 10 16 0.00 0.00
8:40 am 08:40 Cloudy 68 20 64 18 88 88 W 12 19 29.85 1011 10 16 0.00 0.00
8:57 am 08:57 Mostly Cloudy 68 20 64 17.8 87 87 WNW 12 19 29.89 1012 10 16 0.00 0.00
9:08 am 09:08 Mostly Cloudy 68 20 64 18 88 88 NW 13 20 29.85 1011 10 16 0.00 0.00
9:19 am 09:19 Partly Cloudy 68 20 64 18 88 88 WNW 13 20 29.85 1011 10 16 0.00 0.00
9:42 am 09:42 Mostly Cloudy 70 21 64 18 83 83 NW 15 24 29.85 1011 10 16 0.00 0.00
9:57 am 09:57 Cloudy 69 20.6 65 18.3 87 87 NNW 15 24 29.90 1012 10 16 0.00 0.00
10:15 am 10:15 Cloudy 70 21 63 17 78 78 NNW 13 20 29.85 1011 10 16 0.00 0.00
10:27 am 10:27 Cloudy 70 21 63 17 78 78 N 14 22 29.85 1011 10 16 0.00 0.00
10:57 am 10:57 Mostly Cloudy 72 22.2 64 17.8 76 76 N 14 22 29.90 1013 10 16 0.00 0.00
11:16 am 11:16 Mostly Cloudy 72 22 64 18 78 78 N 15 24 29.85 1011 10 16 0.00 0.00
11:57 am 11:57 Cloudy with Light Rain 73 22.8 64 17.8 74 74 NW 14 22 29.90 1012 9 14 0.00 0.03
12:15 pm 12:15 Mostly Cloudy 66 19 63 17 88 88 NNE 22 35 29.85 1011 10 16 0.00 0.03
12:32 pm 12:32 Mostly Cloudy 70 21 64 18 83 83 NNE 18 30 29.88 1012 10 16 0.00 0.03
12:57 pm 12:57 Mostly Cloudy 71 21.7 63 17.2 76 76 NNE 15 24 29.91 1013 10 16 0.00 0.03
1:05 pm 13:05 Mostly Cloudy 72 22 63 17 73 73 NNE 12 19 29.85 1011 10 16 0.00 0.00
1:41 pm 13:41 Mostly Cloudy 73 23 61 16 65 65 N 14 22 29.83 1010 10 16 0.00 0.00
1:57 pm 13:57 Partly Cloudy 75 23.9 61 16.1 62 62 N 10 17 29.89 1012 10 16 0.00 0.00
2:57 pm 14:57 Partly Cloudy 76 24.4 60 15.6 58 58 WNW 8 13 29.88 1012 10 16 0.00 0.00
3:57 pm 15:57 Cloudy 74 23.3 57 13.9 56 56 NW 12 19 29.87 1012 10 16 0.00 0.03
4:13 pm 16:13 Cloudy with Nearby Thunderstorms 73 23 59 15 61 61 NW 18 30 29.83 1010 10 16 0.00 0.00
4:38 pm 16:38 Cloudy with Light Rain 66 19 61 16 83 83 NNW 16 26 29.85 1011 10 16 0.00 0.03
4:57 pm 16:57 Cloudy with Light Rain 68 20 60 15.6 76 76 N 10 17 29.89 1012 10 16 0.01 0.25
5:57 pm 17:57 Mostly Cloudy with Light Rain 65 18.3 62 16.7 90 90 NNE 18 30 29.91 1013 10 16 0.00 0.03
6:21 pm 18:21 Cloudy with Light Rain 66 19 63 17 88 88 N 15 24 29.85 1011 10 16 0.00 0.00
6:57 pm 18:57 Mostly Cloudy 67 19.4 59 15 76 76 NNW 20 31 29.92 1013 10 16 0.00 0.03
7:17 pm 19:17 Mostly Cloudy 66 19 59 15 78 78 NNW 17 28 29.91 1013 10 16 0.00 0.00
7:57 pm 19:57 Mostly Cloudy 67 19.4 60 15.6 79 79 NNW 10 17 29.92 1013 10 16 0.00 0.00
8:57 pm 20:57 Sunny 66 18.9 59 15 78 78 N 15 24 29.94 1014 10 16 0.00 0.00
9:57 pm 21:57 Clear 63 17.2 55 12.8 76 76 NW 7 11 29.96 1015 10 16 0.00 0.00
10:57 pm 22:57 Mostly Clear 61 16.1 56 13.3 84 84 WNW 7 11 29.97 1015 10 16 0.00 0.00
11:57 pm 23:57 Mostly Cloudy 62 16.7 57 13.9 84 84 NW 9 15 29.95 1014 10 16 0.00 0.00

Powered by AerisWeather